This demonstration page uses our WeatherBlox Daily Observations layout. Learn more.

Hourly Observations for December 17, 2017

Temp ( °F °C ) Dew Point ( °F °C ) Humidity (%) Winds ( mph kmh ) Pressure ( in mb ) Visibility ( mi km ) Precip ( " mm )
12:54 am 00:54 Clear 34 1.1 27 -2.8 76 76 NNE 6 9 30 1016 10 16.0934 0 0
1:54 am 01:54 Clear 33 0.6 27 -2.8 78 78 NNE 9 15 29.98 1015 10 16.0934 0 0
2:54 am 02:54 Clear 34 1.1 27 -2.8 76 76 N 8 13 29.96 1015 10 16.0934 0 0
3:54 am 03:54 Clear 33 0.6 27 -2.8 78 78 NNE 10 17 30 1016 10 16.0934 0 0
4:54 am 04:54 Clear 32 0 27 -2.8 82 82 N 8 13 30.02 1017 9 14.48406 0 0
5:54 am 05:54 Cloudy 32 0 27 -2.8 82 82 N 10 17 30.01 1016 8 12.87472 0 0
6:54 am 06:54 Cloudy with Light Wintry Mix 32 0 27 -2.8 82 82 NNE 13 20 30.01 1016 4 6.43736 0.01 0.254
7:54 am 07:54 Cloudy with Light Snow 31 -0.6 28 -2.2 89 89 N 8 13 30.05 1018 4 6.43736 0.04 1.016
8:28 am 08:28 Cloudy with Light Freezing Rain 31 -0.6 28 -2.2 89 89 N 9 15 30.09 1019 3 4.82802 0.03 0.762
8:54 am 08:54 Cloudy with Light Freezing Rain 31 -0.6 28 -2.2 89 89 NNE 10 17 30.06 1018 3 4.82802 0.04 1.016
9:17 am 09:17 Cloudy with Light Freezing Rain 31 -0.6 28 -2.2 89 89 N 9 15 30.12 1020 3 4.82802 0.01 0.254
9:54 am 09:54 Cloudy with Light Snow 31 -0.6 28 -2.2 89 89 N 6 9 30.11 1020 3 4.82802 0.02 0.508
10:03 am 10:03 Cloudy with Light Snow 31 -0.6 28 -2.2 89 89 N 3 6 30.12 1020 2.5 4.02335 0 0.0254
10:12 am 10:12 Cloudy with Light Wintry Mix 32 0 28 -2.2 85 85 N 5 7 30.12 1020 4 6.43736 0.01 0.254
10:54 am 10:54 Cloudy with Mist and Fog 32 0 28 -2.2 85 85 N 5 7 30.08 1019 5 8.0467 0.01 0.254
11:54 am 11:54 Hazy 35 1.7 30 -1.1 82 82 N 6 9 30.05 1018 6 9.65604 0 0
12:54 pm 12:54 Partly Cloudy 39 3.9 30 -1.1 70 70 NNW 9 15 30.02 1017 7 11.26538 0 0
1:54 pm 13:54 Partly Cloudy 42 5.6 30 -1.1 62 62 N 8 13 29.99 1016 8 12.87472 0 0
2:54 pm 14:54 Sunny 42 5.6 30 -1.1 62 62 N 7 11 29.99 1016 8 12.87472 0 0
3:54 pm 15:54 Sunny 41 5 29 -1.7 62 62 Calm 30.02 1017 8 12.87472 0 0
4:54 pm 16:54 Sunny 34 1.1 28 -2.2 79 79 ENE 5 7 30.03 1017 7 11.26538 0 0
5:54 pm 17:54 Clear 35 1.7 28 -2.2 76 76 E 5 7 30.02 1017 8 12.87472 0 0
6:54 pm 18:54 Clear 34 1.1 28 -2.2 79 79 Calm 30.04 1017 8 12.87472 0 0
7:54 pm 19:54 Clear 32 0 27 -2.8 82 82 Calm 30.05 1018 8 12.87472 0 0
8:54 pm 20:54 Clear 32 0 27 -2.8 82 82 Calm 30.06 1018 8 12.87472 0 0
9:54 pm 21:54 Clear with Mist and Fog 32 0 29 -1.7 88 88 Calm 30.06 1018 5 8.0467 0 0
10:54 pm 22:54 Clear with Mist and Fog 25 -3.9 23 -5 92 92 Calm 30.05 1018 6 9.65604 0 0
11:54 pm 23:54 Clear with Mist and Fog 26 -3.3 23 -5 88 88 Calm 30.04 1017 5 8.0467 0 0

Powered by AerisWeather